Content
SEND FEEDBACK

Daily
Averages
Monthly
Summary
United States of America

FORT MCKAVETT, TEXAS


Home > North America > United States > Texas
Elevation: 2400 feet     Latitude: 30 41N     Longitude: 100 05W

WEATHER
 
SELECT A DAY
Number of Records: 216,821;   Date Range: 1/1/95 - 7/7/14
 
SHARE

PRINT THIS DATA

[ ← Previous Day ]
WEATHER ALMANAC - JANUARY 31, 2013
[ Next Day → ]
[ °C ]   °F
Weather ElementAverageHighLow
Temperature45.5 °F66 °F (2:51 pm)25 °F (5:51 am)
Dewpoint16.5 °F21 °F (10:51 pm)14 °F (1:51 pm)
Humidity37.6 %66 % (5:51 am)13 % (2:51 pm)
Barometer30.19 in30.24 in (9:51 am)30.12 in (3:51 pm)
Wind Speed5.6 mph15 mph (11:51 am)
Wind Gust23 mph (12:51 pm)
Weather ElementAverage
Visibility9.6 mi
Wind DirectionSSE (167.4 °)

Weather ElementTotal
Precipitation---
Heating Degree Days19.5 (Base 65)
Averaged from 23 records on January 31, 2013
WEATHER CONDITIONS BREAKOUT
WIND DIRECTION BREAKOUT
WEATHER BY HOUR - JANUARY 31, 2013
[ °C ]   °F
Local TimeTemperatureDewpointHumidityBarometerVisibilityWind DirectionWind SpeedGust SpeedPrecipitationEventsConditions
1:51 AM28.0 °F15.1 °F58 %30.18 in10.0 miWest (260°)4.6 mphClear
2:51 AM28.0 °F16.0 °F61 %30.16 in10.0 miWest (260°)5.8 mphClear
3:51 AM27.0 °F15.1 °F61 %30.17 in10.0 miCalmClear
4:51 AM28.0 °F16.0 °F61 %30.17 in10.0 miWest (280°)5.8 mphClear
5:51 AM25.0 °F15.1 °F66 %30.18 in10.0 miWNW (300°)3.5 mphClear
6:51 AM26.1 °F16.0 °F66 %30.20 in9.0 miWest (270°)3.5 mphClear
7:51 AM25.0 °F15.1 °F66 %30.22 in8.0 miWNW (290°)5.8 mphClear
8:51 AM30.9 °F18.0 °F59 %30.23 in9.0 miCalmClear
9:51 AM46.0 °F18.0 °F33 %30.24 in9.0 miCalmClear
10:51 AM55.0 °F15.1 °F21 %30.24 in10.0 miSSW (210°)10.4 mph19.6 mphClear
11:51 AM61.0 °F16.0 °F17 %30.21 in10.0 miSW (230°)15.0 mph21.9 mphClear
12:51 PM64.0 °F16.0 °F16 %30.18 in10.0 miWSW (240°)13.8 mph23.0 mphClear
1:51 PM64.0 °F14.0 °F14 %30.14 in10.0 miSW (220°)13.8 mph18.4 mphClear
2:51 PM66.0 °F14.0 °F13 %30.14 in10.0 miSW (220°)11.5 mphClear
3:51 PM64.0 °F14.0 °F14 %30.12 in9.0 miWSW (240°)11.5 mphClear
4:51 PM64.9 °F14.0 °F14 %30.13 in9.0 miSW (220°)9.2 mphClear
5:51 PM61.0 °F16.0 °F17 %30.15 in9.0 miSSW (210°)6.9 mphClear
6:51 PM55.9 °F17.1 °F22 %30.18 in9.0 miSSW (210°)3.5 mphClear
7:51 PM51.1 °F19.0 °F28 %30.20 in10.0 miSouth (190°)4.6 mphClear
8:51 PM48.0 °F19.0 °F32 %30.22 in10.0 miCalmClear
9:51 PM46.0 °F19.9 °F35 %30.22 in10.0 miCalmClear
10:51 PM43.0 °F21.0 °F42 %30.21 in10.0 miCalmClear
11:51 PM39.0 °F21.0 °F49 %30.22 in10.0 miCalmClear
Hourly data recorded from KJCT, located miles away from Fort McKavett, Texas







STORIES FROM OUR PARTNERS